Location: Bogis-Bossey
(46.3500°N, 6.1667°E)
Time: 17:04:44
(UTC+00:00)

Cosmos 1538 Rocket - Pass Details

Date: 17 August 2022
Orbit: 751 x 792 km, 74.0° (Epoch: 01 October)

Event Time Altitude Azimuth Distance (km) Brightness Sun altitude
Rises 20:11:41 0° 202° (SSW) 3,187 7.0 -14.4°
Reaches altitude 10° 20:14:01 10° 203° (SSW) 2,268 6.3 -14.7°
Maximum altitude 20:19:10 83° 291° (WNW) 766 4.0 -15.4°
Drops below altitude 10° 20:24:24 10° 21° (NNE) 2,300 6.7 -16.1°
Sets 20:26:47 0° 22° (NNE) 3,236 7.5 -16.4°
